Previsão horária em Almussafes

Hoje, 25 Janeiro, Segunda-feira

Tempo Temperatura Precipitação Vento Pressão Humidade
00:00 +11°C° 0 mm 6 m/s 757 mmHg 64%
01:00 +11°C° 0 mm 6 m/s 757 mmHg 65%
02:00 +11°C° 0 mm 6 m/s 756 mmHg 66%
03:00 +11°C° 0 mm 6 m/s 756 mmHg 67%
04:00 +11°C° 0 mm 6 m/s 756 mmHg 68%
05:00 +13°C° 0 mm 6 m/s 756 mmHg 69%
06:00 +13°C° 0 mm 6 m/s 755 mmHg 71%
07:00 +10°C° 0 mm 3 m/s 760 mmHg 68%
08:00 +11°C° 0 mm 3 m/s 760 mmHg 68%
09:00 +11°C° 0 mm 4 m/s 761 mmHg 68%
10:00 +13°C° 0 mm 4 m/s 761 mmHg 62%
11:00 +14°C° 0 mm 4 m/s 761 mmHg 56%
12:00 +16°C° 0 mm 3 m/s 761 mmHg 50%
13:00 +17°C° 0 mm 4 m/s 761 mmHg 50%
14:00 +17°C° 0 mm 4 m/s 760 mmHg 50%
15:00 +17°C° 0 mm 4 m/s 760 mmHg 50%
16:00 +14°C° 0 mm 3 m/s 761 mmHg 54%
17:00 +13°C° 0 mm 3 m/s 761 mmHg 59%
18:00 +11°C° 0 mm 3 m/s 761 mmHg 63%
19:00 +11°C° 0 mm 3 m/s 762 mmHg 66%
20:00 +10°C° 0 mm 3 m/s 762 mmHg 69%
21:00 +10°C° 0 mm 3 m/s 763 mmHg 73%
22:00 +9°C° 0 mm 3 m/s 763 mmHg 74%
23:00 +9°C° 0 mm 2 m/s 763 mmHg 76%

Amanhã, 26 Janeiro, Terça-feira

Tempo Temperatura Precipitação Vento Pressão Humidade
00:00 +9°C° 0 mm 2 m/s 763 mmHg 78%
01:00 +9°C° 0 mm 3 m/s 763 mmHg 78%
02:00 +9°C° 0 mm 3 m/s 763 mmHg 79%
03:00 +9°C° 0 mm 3 m/s 763 mmHg 79%
04:00 +9°C° 0 mm 3 m/s 763 mmHg 80%
05:00 +9°C° 0 mm 3 m/s 763 mmHg 80%
06:00 +9°C° 0 mm 3 m/s 763 mmHg 81%
07:00 +10°C° 0 mm 3 m/s 763 mmHg 78%
08:00 +11°C° 0 mm 3 m/s 764 mmHg 75%
09:00 +13°C° 0 mm 3 m/s 764 mmHg 72%
10:00 +15°C° 0 mm 4 m/s 764 mmHg 67%
11:00 +17°C° 0 mm 5 m/s 764 mmHg 61%
12:00 +20°C° 0 mm 6 m/s 763 mmHg 55%
13:00 +20°C° 0 mm 6 m/s 763 mmHg 56%
14:00 +20°C° 0 mm 7 m/s 763 mmHg 56%
15:00 +20°C° 0 mm 7 m/s 762 mmHg 57%
16:00 +19°C° 0 mm 6 m/s 762 mmHg 60%
17:00 +17°C° 0 mm 5 m/s 763 mmHg 64%
18:00 +17°C° 0 mm 4 m/s 763 mmHg 67%
19:00 +15°C° 0 mm 4 m/s 763 mmHg 70%
20:00 +15°C° 0 mm 4 m/s 763 mmHg 73%
21:00 +14°C° 0 mm 4 m/s 764 mmHg 75%
22:00 +14°C° 0 mm 4 m/s 764 mmHg 77%
23:00 +14°C° 0 mm 4 m/s 764 mmHg 79%

Depois de amanhã, 27 Janeiro, Quarta-feira

Tempo Temperatura Precipitação Vento Pressão Humidade
00:00 +14°C° 0 mm 3 m/s 764 mmHg 81%
01:00 +14°C° 0 mm 4 m/s 764 mmHg 81%
02:00 +14°C° 0 mm 4 m/s 764 mmHg 81%
03:00 +14°C° 0 mm 4 m/s 764 mmHg 80%
04:00 +14°C° 0 mm 4 m/s 764 mmHg 82%
05:00 +13°C° 0 mm 3 m/s 764 mmHg 83%
06:00 +13°C° 0 mm 3 m/s 764 mmHg 84%
07:00 +14°C° 0 mm 3 m/s 764 mmHg 81%
08:00 +16°C° 0 mm 3 m/s 764 mmHg 78%
09:00 +17°C° 0 mm 3 m/s 765 mmHg 75%
10:00 +18°C° 0 mm 3 m/s 765 mmHg 68%
11:00 +20°C° 0 mm 3 m/s 764 mmHg 61%
12:00 +22°C° 0 mm 3 m/s 764 mmHg 54%
13:00 +22°C° 0 mm 3 m/s 764 mmHg 53%
14:00 +22°C° 0 mm 3 m/s 763 mmHg 52%
15:00 +22°C° 0 mm 3 m/s 763 mmHg 51%
16:00 +20°C° 0 mm 3 m/s 763 mmHg 58%
17:00 +18°C° 0 mm 3 m/s 763 mmHg 66%
18:00 +16°C° 0 mm 3 m/s 763 mmHg 73%
19:00 +16°C° 0 mm 3 m/s 764 mmHg 74%
20:00 +15°C° 0 mm 2 m/s 764 mmHg 76%
21:00 +15°C° 0 mm 2 m/s 764 mmHg 77%
22:00 +14°C° 0 mm 2 m/s 765 mmHg 77%
23:00 +14°C° 0 mm 2 m/s 765 mmHg 77%

28 Janeiro, Quinta-feira

Tempo Temperatura Precipitação Vento Pressão Humidade
00:00 +13°C° 0 mm 3 m/s 765 mmHg 78%
01:00 +13°C° 0 mm 3 m/s 765 mmHg 78%
02:00 +12°C° 0 mm 3 m/s 765 mmHg 77%
03:00 +12°C° 0 mm 3 m/s 765 mmHg 77%
04:00 +12°C° 0 mm 3 m/s 765 mmHg 78%
05:00 +12°C° 0 mm 3 m/s 765 mmHg 78%
06:00 +12°C° 0 mm 3 m/s 765 mmHg 79%
07:00 +13°C° 0 mm 3 m/s 765 mmHg 76%
08:00 +14°C° 0 mm 3 m/s 765 mmHg 74%
09:00 +16°C° 0 mm 3 m/s 765 mmHg 71%
10:00 +18°C° 0 mm 3 m/s 765 mmHg 64%
11:00 +20°C° 0 mm 3 m/s 765 mmHg 58%
12:00 +22°C° 0 mm 3 m/s 765 mmHg 51%
13:00 +22°C° 0 mm 3 m/s 765 mmHg 51%
14:00 +23°C° 0 mm 4 m/s 764 mmHg 51%
15:00 +23°C° 0 mm 4 m/s 764 mmHg 51%
16:00 +21°C° 0 mm 4 m/s 764 mmHg 58%
17:00 +19°C° 0 mm 4 m/s 764 mmHg 64%
18:00 +17°C° 0 mm 4 m/s 764 mmHg 70%

29 Janeiro, Sexta-feira

Tempo Temperatura Precipitação Vento Pressão Humidade

30 Janeiro, Sábado

Tempo Temperatura Precipitação Vento Pressão Humidade
Mostrar mais

Necessitamos do seu Consentimento

A Meteoprog e os seus Fornecedores de Serviços podem armazenar e aceder a dados pessoais como cookies, identificadores do dispositivo ou outras tecnologias semelhantes existentes no seu dispositivo e processar estes dados para personalizar conteúdos e anúncios, assim como funcionalidades nas redes sociais e análise de tráfego.

  • Armazenar e/ou aceder a informações no seu dispositivo

    Os cookies, identificadores do dispositivo ou outras informações podem ser armazenados ou acedidos no seu dispositivo, para os fins acima indicados.

  • Anúncios e conteúdos personalizados, medição de anúncios e conteúdos, dados sobre o público-alvo e desenvolvimento de produtos

    Os anúncios e os conteúdos podem ser personalizados com base num perfil. Podem ser adicionados dados adicionais para uma maior personalização dos anúncios e dos conteúdos. A eficácia dos anúncios e dos conteúdos pode ser medida. Podem ser obtidas informações sobre o público que visualizou os anúncios e os conteúdos. Estes dados podem ser usados para desenvolver ou melhorar sistemas, softwares ou a experiência do utilizador.

Ao clicar em "Eu concordo”, permitirá o uso de cookies, identificadores do dispositivo e web beacons mencionados ou outras tecnologias semelhantes. As configurações do navegador do seu dispositivo podem ser alteradas.

Para certos fins, podem ser invocados interesses legítimos ao invés de consentimento. Pode ler mais informação sobre este assunto na nossa Política de Privacidade e Cookies.